This is the latest recevied weather packets stored in our database for station/object KD7AWQ. If no packets are shown the sender has not sent any weather packets the latest 10 day(s).
| Time | Temp. | Humidity | Pressure | Rain* | Wind** | Luminosity | Snow |
|---|---|---|---|---|---|---|---|
| 1778134353 | 16.11° C | 23% | 1186 hPa | 0 mm | - | 0 W/m² | - |
| 1778134051 | 17.78° C | 20% | 1186.1 hPa | 0 mm | - | 0 W/m² | - |
| 1778133747 | 18.33° C | 16% | 1186 hPa | 0 mm | - | 0 W/m² | - |
| 1778133443 | 18.89° C | 15% | 1186 hPa | 0 mm | - | 0 W/m² | - |
| 1778133139 | 18.89° C | 16% | 1186.2 hPa | 0 mm | - | 0 W/m² | - |
| 1778132835 | 18.89° C | 16% | 1186 hPa | 0 mm | - | 0 W/m² | - |
| 1778132533 | 18.89° C | 16% | 1185.7 hPa | 0 mm | - | 0 W/m² | - |
| 1778132230 | 18.89° C | 15% | 1186 hPa | 0 mm | - | 0 W/m² | - |
| 1778131928 | 18.89° C | 15% | 1185.8 hPa | 0 mm | - | 0 W/m² | - |
| 1778131626 | 19.44° C | 14% | 1185.6 hPa | 0 mm | - | 0 W/m² | - |
| 1778131321 | 19.44° C | 14% | 1185.8 hPa | 0 mm | - | 0 W/m² | - |
| 1778131020 | 19.44° C | 14% | 1185.6 hPa | 0 mm | - | 0 W/m² | - |
| 1778130716 | 20° C | 14% | 1186.1 hPa | 0 mm | - | 0 W/m² | - |
| 1778130413 | 20° C | 14% | 1185.7 hPa | 0 mm | - | 0 W/m² | - |
| 1778130110 | 19.44° C | 13% | 1185.6 hPa | 0 mm | - | 0 W/m² | - |
| 1778129807 | 19.44° C | 14% | 1185.6 hPa | 0 mm | - | 0 W/m² | - |
| 1778129503 | 19.44° C | 14% | 1185.6 hPa | 0 mm | - | 0 W/m² | - |
| 1778129200 | 19.44° C | 15% | 1185.7 hPa | 0 mm | - | 0 W/m² | - |
| 1778128897 | 19.44° C | 14% | 1185.4 hPa | 0 mm | - | 0 W/m² | - |
| 1778128593 | 19.44° C | 15% | 1185.5 hPa | 0 mm | - | 0 W/m² | - |
| 1778128290 | 19.44° C | 15% | 1185.7 hPa | 0 mm | - | 0 W/m² | - |
| 1778127987 | 19.44° C | 15% | 1185.4 hPa | 0 mm | - | 0 W/m² | - |
| 1778127681 | 19.44° C | 16% | 1185.5 hPa | 0 mm | - | 0 W/m² | - |
| 1778127379 | 19.44° C | 16% | 1185.3 hPa | 0 mm | - | 0 W/m² | - |
| 1778127076 | 19.44° C | 16% | 1185.5 hPa | 0 mm | - | 0 W/m² | - |
* Rain latest hour (hover to see other rain measurements)
** Current wind speed in m/s (hover to see current wind gust speed)